Location: Burjasot
(39.5167°N, 0.4167°W)
Time: 04:41:49
(UTC+02:00)

ISS - Pass Details

Date: 26 May 2019
Orbit: 408 x 418 km, 51.6° (Epoch: 18 June)

Event Time Altitude Azimuth Distance (km) Brightness Sun altitude
Rises 22:31:41 0° 301° (WNW) 2,351 1.9 -12.4°
Reaches altitude 10° 22:35:20 10° 343° (NNW) 1,493 0.0 -12.9°
Maximum altitude 22:36:07 11° 356° (N) 1,457 -0.3 -13.1°
Drops below altitude 10° 22:36:55 10° 10° (N) 1,495 -0.5 -13.2°
Sets 22:40:35 0° 52° (NE) 2,363 0.0 -13.7°
